GW4489 Weather Reports


Display with metric or nautical units.
time (UTC)temp
F
wind
direction
speed
MPH
gust
MPH
rain 1hr
in
rain 24hr
in
rain mn
in
humidity
%
barometer
mb
20260904040037 76 115 0.0 0.0 0.00 0.00 0.00 85 1017.9
20260904035503 76 115 0.0 2.0 0.00 0.00 0.00 84 1017.9
20260904035003 76 115 0.0 2.0 0.00 0.00 0.00 84 1017.8
20260904034503 76 115 0.0 0.0 0.00 0.00 0.00 84 1017.9
20260904034003 76 115 0.0 0.0 0.00 0.00 0.00 84 1017.9
20260904033503 77 115 0.0 0.0 0.00 0.00 0.00 84 1017.9
20260904033009 77 115 0.0 0.0 0.00 0.00 0.00 83 1017.9
20260904032503 77 115 0.0 2.0 0.00 0.00 0.00 83 1017.9
20260904032004 77 115 0.0 2.0 0.00 0.00 0.00 83 1017.9
20260904031520 77 115 0.0 2.0 0.00 0.00 0.00 83 1017.9
20260904031007 77 115 0.0 2.0 0.00 0.00 0.00 83 1017.9
20260904030508 77 115 0.0 1.0 0.00 0.00 0.00 83 1018.0
20260904030020 77 115 0.0 1.0 0.00 0.00 0.00 83 1018.0
20260904025508 78 115 0.0 2.0 0.00 0.00 0.00 83 1018.0
20260904025012 78 115 0.0 2.0 0.00 0.00 0.00 83 1018.0
20260904024526 78 115 0.0 0.0 0.00 0.00 0.00 83 1018.1
20260904024003 78 115 0.0 2.0 0.00 0.00 0.00 83 1018.0
20260904023504 78 115 0.0 3.0 0.00 0.00 0.00 83 1017.9
20260904023012 78 115 1.0 3.0 0.00 0.00 0.00 83 1017.8
20260904022505 78 115 0.0 1.0 0.00 0.00 0.00 83 1017.8
20260904022003 78 115 0.0 1.0 0.00 0.00 0.00 82 1017.9
20260904021525 78 115 0.0 2.0 0.00 0.00 0.00 82 1017.9
20260904021007 78 115 1.0 2.0 0.00 0.00 0.00 82 1017.9
20260904020507 79 115 0.0 2.0 0.00 0.00 0.00 82 1017.9
20260904020016 79 115 0.0 3.0 0.00 0.00 0.00 82 1017.8
20260904015510 79 115 1.0 3.0 0.00 0.00 0.00 81 1017.8
20260904015011 79 115 2.0 3.0 0.00 0.00 0.00 81 1017.7
20260904014523 80 115 2.0 3.0 0.00 0.00 0.00 80 1017.6
20260904014011 80 115 2.0 3.0 0.00 0.00 0.00 79 1017.6
20260904013511 81 115 2.0 3.0 0.00 0.00 0.00 78 1017.6
20260904013028 81 115 0.0 2.0 0.00 0.00 0.00 78 1017.5
20260904012513 81 115 0.0 2.0 0.00 0.00 0.00 78 1017.6
20260904012003 81 115 0.0 3.0 0.00 0.00 0.00 78 1017.5
20260904011509 81 115 2.0 3.0 0.00 0.00 0.00 78 1017.4
20260904011005 82 115 0.0 1.0 0.00 0.00 0.00 77 1017.3
20260904010503 82 115 0.0 2.0 0.00 0.00 0.00 77 1017.2
20260904010014 82 115 0.0 2.0 0.00 0.00 0.00 76 1017.1
20260904005505 83 115 0.0 0.0 0.00 0.00 0.00 76 1017.1
20260904005011 83 115 0.0 0.0 0.00 0.00 0.00 75 1017.0
20260904004523 83 115 0.0 1.0 0.00 0.00 0.00 75 1017.0
20260904004008 84 115 0.0 2.0 0.00 0.00 0.00 74 1016.9
20260904003511 84 115 0.0 2.0 0.00 0.00 0.00 73 1016.7
20260904003029 85 115 0.0 2.0 0.00 0.00 0.00 72 1016.7
20260904002513 85 115 0.0 2.0 0.00 0.00 0.00 71 1016.7
20260904002014 86 115 1.0 2.0 0.00 0.00 0.00 70 1016.7
20260904001550 86 115 0.0 0.0 0.00 0.00 0.00 70 1016.6
20260904001015 87 115 0.0 0.0 0.00 0.00 0.00 69 1016.5
20260904000520 87 115 0.0 1.0 0.00 0.00 0.00 68 1016.3
20260904000010 87 115 0.0 3.0 0.00 0.00 0.00 68 1016.3
20260903235503 88 115 0.0 3.0 0.00 0.00 0.00 67 1016.3
20260903235004 88 115 2.0 3.0 0.00 0.00 0.00 67 1016.2
20260903234516 89 115 0.0 3.0 0.00 0.00 0.00 66 1016.2
20260903234010 90 115 0.0 4.0 0.00 0.00 0.00 64 1016.1
20260903233510 91 115 1.0 4.0 0.00 0.00 0.00 62 1016.1
20260903233033 93 115 2.0 4.0 0.00 0.00 0.00 61 1016.1
20260903232511 95 111 1.0 4.0 0.00 0.00 0.00 58 1016.1
20260903232013 96 55 1.0 3.0 0.00 0.00 0.00 56 1016.1
20260903231525 95 32 0.0 0.0 0.00 0.00 0.00 55 1016.0
20260903231016 95 290 0.0 0.0 0.00 0.00 0.00 55 1015.9
20260903230519 95 290 0.0 0.0 0.00 0.00 0.00 54 1015.9
20260903230033 95 290 0.0 0.0 0.00 0.00 0.00 55 1015.9
20260903225516 94 290 0.0 0.0 0.00 0.00 0.00 56 1015.9
20260903225019 94 290 0.0 0.0 0.00 0.00 0.00 55 1015.9
20260903224522 94 290 0.0 3.0 0.00 0.00 0.00 55 1015.9
20260903224009 94 290 0.0 3.0 0.00 0.00 0.00 53 1015.9
20260903223508 95 290 1.0 3.0 0.00 0.00 0.00 52 1015.9
20260903223020 95 290 0.0 3.0 0.00 0.00 0.00 51 1015.9
20260903222511 95 288 1.0 4.0 0.00 0.00 0.00 54 1015.9
20260903222011 95 58 2.0 4.0 0.00 0.00 0.00 49 1015.9
20260903221527 96 347 1.0 5.0 0.00 0.00 0.00 51 1015.8
20260903221012 96 338 2.0 5.0 0.00 0.00 0.00 50 1015.9
20260903220515 95 34 3.0 5.0 0.00 0.00 0.00 49 1016.0
20260903220028 95 273 0.0 3.0 0.00 0.00 0.00 55 1016.0
20260903215516 94 273 1.0 3.0 0.00 0.00 0.00 56 1016.0
20260903215015 92 273 0.0 0.0 0.00 0.00 0.00 62 1016.0
20260903214534 91 273 0.0 0.0 0.00 0.00 0.00 62 1016.0
20260903214016 91 273 0.0 0.0 0.00 0.00 0.00 61 1016.0
20260903213518 91 273 0.0 1.0 0.00 0.00 0.00 60 1016.0
20260903213047 91 273 0.0 2.0 0.00 0.00 0.00 60 1016.1
20260903212509 92 183 0.0 2.0 0.00 0.00 0.00 57 1016.1
20260903212011 93 265 1.0 2.0 0.00 0.00 0.00 58 1016.2
20260903211523 93 34 0.0 2.0 0.00 0.00 0.00 54 1016.1
20260903211012 94 34 0.0 2.0 0.00 0.00 0.00 56 1016.1
20260903210513 95 34 0.0 5.0 0.00 0.00 0.00 50 1016.2
20260903210029 96 34 2.0 5.0 0.00 0.00 0.00 47 1016.2
20260903205517 97 315 1.0 3.0 0.00 0.00 0.00 47 1016.2
20260903205012 94 260 1.0 2.0 0.00 0.00 0.00 52 1016.3
20260903204528 92 260 0.0 1.0 0.00 0.00 0.00 60 1016.4
20260903204014 92 225 0.0 1.0 0.00 0.00 0.00 57 1016.4
20260903203514 93 333 0.0 4.0 0.00 0.00 0.00 56 1016.4
20260903203037 93 31 0.0 4.0 0.00 0.00 0.00 57 1016.5
20260903202516 93 31 1.0 4.0 0.00 0.00 0.00 53 1016.5
20260903202006 93 355 0.0 3.0 0.00 0.00 0.00 54 1016.5
20260903201518 94 355 2.0 3.0 0.00 0.00 0.00 55 1016.6
20260903201007 94 355 1.0 4.0 0.00 0.00 0.00 52 1016.7
20260903200511 95 355 2.0 5.0 0.00 0.00 0.00 50 1016.8
20260903200024 96 36 2.0 5.0 0.00 0.00 0.00 48 1016.8
20260903195512 96 42 1.0 4.0 0.00 0.00 0.00 48 1016.9
20260903195005 96 102 1.0 9.0 0.00 0.00 0.00 50 1017.0
20260903194503 97 11 3.0 9.0 0.00 0.00 0.00 46 1017.0
20260903194004 98 26 4.0 9.0 0.00 0.00 0.00 46 1016.9
20260903193502 97 224 2.0 5.0 0.00 0.00 0.00 47 1017.0
20260903193015 97 293 0.0 6.0 0.00 0.00 0.00 48 1017.0
20260903192505 95 292 0.0 6.0 0.00 0.00 0.00 49 1017.1
20260903192005 96 273 1.0 6.0 0.00 0.00 0.00 50 1017.2
20260903191522 96 132 0.0 7.0 0.00 0.00 0.00 47 1017.2
20260903191010 97 139 2.0 7.0 0.00 0.00 0.00 47 1017.3
20260903190508 97 329 2.0 9.0 0.00 0.00 0.00 46 1017.3
20260903190022 97 286 5.0 9.0 0.00 0.00 0.00 46 1017.3
20260903185510 97 5 3.0 8.0 0.00 0.00 0.00 49 1017.3
20260903185012 97 340 3.0 6.0 0.00 0.00 0.00 47 1017.4
20260903184526 97 18 2.0 7.0 0.00 0.00 0.00 48 1017.5
20260903184012 96 9 1.0 7.0 0.00 0.00 0.00 51 1017.7
20260903183515 96 5 3.0 8.0 0.00 0.00 0.00 48 1017.8
20260903183020 95 250 2.0 8.0 0.00 0.00 0.00 52 1017.8
20260903182504 96 238 2.0 7.0 0.00 0.00 0.00 48 1017.9
20260903182004 97 288 2.0 7.0 0.00 0.00 0.00 48 1017.9
20260903181509 97 360 2.0 8.0 0.00 0.00 0.00 50 1018.0
20260903181006 96 329 2.0 8.0 0.00 0.00 0.00 50 1018.1
20260903180504 96 345 2.0 7.0 0.00 0.00 0.00 51 1018.2
20260903180025 94 307 2.0 14.0 0.00 0.00 0.00 54 1018.2
20260903175508 94 26 6.0 14.0 0.00 0.00 0.00 52 1018.3
20260903175008 95 44 10.0 14.0 0.00 0.00 0.00 49 1018.2
20260903174524 96 225 2.0 4.0 0.00 0.00 0.00 52 1018.4
20260903174012 95 241 1.0 6.0 0.00 0.00 0.00 51 1018.5
20260903173512 95 270 2.0 6.0 0.00 0.00 0.00 50 1018.5
20260903173027 95 205 2.0 5.0 0.00 0.00 0.00 50 1018.5
20260903172515 95 230 3.0 5.0 0.00 0.00 0.00 49 1018.8
20260903172014 96 294 0.0 4.0 0.00 0.00 0.00 48 1018.8
20260903171542 94 14 2.0 4.0 0.00 0.00 0.00 49 1018.9
20260903171003 94 254 2.0 5.0 0.00 0.00 0.00 51 1018.9
20260903170504 93 144 2.0 5.0 0.00 0.00 0.00 54 1019.0
20260903170014 93 35 1.0 4.0 0.00 0.00 0.00 51 1019.1
20260903165509 93 15 2.0 4.0 0.00 0.00 0.00 51 1019.1
20260903165009 92 344 0.0 4.0 0.00 0.00 0.00 55 1019.1
20260903164519 92 9 2.0 6.0 0.00 0.00 0.00 55 1019.2
20260903164010 92 37 0.0 6.0 0.00 0.00 0.00 53 1019.2
20260903163514 93 345 2.0 5.0 0.00 0.00 0.00 51 1019.2
20260903163024 94 333 3.0 6.0 0.00 0.00 0.00 52 1019.2
20260903162511 95 315 2.0 8.0 0.00 0.00 0.00 49 1019.3
20260903162015 95 321 3.0 8.0 0.00 0.00 0.00 52 1019.3
20260903161528 94 11 1.0 4.0 0.00 0.00 0.00 54 1019.3
20260903161014 94 36 2.0 4.0 0.00 0.00 0.00 52 1019.3
20260903160514 93 252 1.0 3.0 0.00 0.00 0.00 53 1019.4
20260903160036 94 239 1.0 3.0 0.00 0.00 0.00 54 1019.4
20260903155518 93 244 0.0 3.0 0.00 0.00 0.00 55 1019.5
20260903155008 93 273 1.0 4.0 0.00 0.00 0.00 53 1019.5
20260903154513 93 277 2.0 4.0 0.00 0.00 0.00 53 1019.5
20260903154009 92 311 1.0 4.0 0.00 0.00 0.00 56 1019.5
20260903153507 91 229 2.0 4.0 0.00 0.00 0.00 55 1019.6
20260903153023 92 265 0.0 4.0 0.00 0.00 0.00 56 1019.6
20260903152512 91 264 1.0 4.0 0.00 0.00 0.00 58 1019.6
20260903152014 91 355 2.0 4.0 0.00 0.00 0.00 56 1019.6
20260903151528 91 213 1.0 3.0 0.00 0.00 0.00 58 1019.6
20260903151013 90 204 1.0 4.0 0.00 0.00 0.00 62 1019.7
20260903150514 90 204 2.0 4.0 0.00 0.00 0.00 60 1019.6
20260903150032 90 204 1.0 4.0 0.00 0.00 0.00 62 1019.5
20260903145515 89 223 2.0 4.0 0.00 0.00 0.00 63 1019.5
20260903145017 89 223 1.0 4.0 0.00 0.00 0.00 61 1019.5
20260903144534 90 223 2.0 4.0 0.00 0.00 0.00 63 1019.4
20260903144016 89 223 2.0 4.0 0.00 0.00 0.00 62 1019.4
20260903143507 88 223 1.0 3.0 0.00 0.00 0.00 67 1019.4
20260903143018 87 227 0.0 2.0 0.00 0.00 0.00 66 1019.5
20260903142511 86 227 0.0 3.0 0.00 0.00 0.00 72 1019.5
20260903142011 85 227 1.0 3.0 0.00 0.00 0.00 74 1019.5
20260903141523 85 227 1.0 3.0 0.00 0.00 0.00 76 1019.5
20260903141011 84 227 0.0 3.0 0.00 0.00 0.00 78 1019.5
20260903140512 83 227 0.0 2.0 0.00 0.00 0.00 80 1019.5
20260903140031 82 227 0.0 2.0 0.00 0.00 0.00 82 1019.4
20260903135512 81 18 0.0 2.0 0.00 0.00 0.00 85 1019.5
20260903135016 80 18 0.0 2.0 0.00 0.00 0.00 86 1019.5
20260903134531 80 18 0.0 2.0 0.00 0.00 0.00 88 1019.5
20260903134014 79 5 0.0 0.0 0.00 0.00 0.00 89 1019.5
20260903133517 78 5 0.0 0.0 0.00 0.00 0.00 90 1019.5
20260903133035 77 23 0.0 0.0 0.00 0.00 0.00 91 1019.6
20260903132519 77 30 0.0 0.0 0.00 0.00 0.00 93 1019.6
20260903132018 76 30 0.0 0.0 0.00 0.00 0.00 94 1019.7
20260903131522 75 326 0.0 0.0 0.00 0.00 0.00 95 1019.7
20260903131012 75 336 0.0 0.0 0.00 0.00 0.00 95 1019.7
20260903130511 74 60 0.0 0.0 0.00 0.00 0.00 95 1019.8
20260903130027 75 60 0.0 0.0 0.00 0.00 0.00 96 1019.8
20260903125515 74 60 0.0 0.0 0.00 0.00 0.00 97 1019.9
20260903125013 73 60 0.0 0.0 0.00 0.00 0.00 97 1019.9
20260903124529 72 60 0.0 0.0 0.00 0.00 0.00 97 1019.9
20260903124016 71 60 0.0 0.0 0.00 0.00 0.00 97 1019.9
20260903123520 71 60 0.0 0.0 0.00 0.00 0.00 96 1020.0
20260903123035 71 60 0.0 0.0 0.00 0.00 0.00 96 1019.9
20260903122519 71 60 0.0 0.0 0.00 0.00 0.00 96 1019.9
20260903122018 70 60 0.0 0.0 0.00 0.00 0.00 96 1019.8
20260903121541 70 60 0.0 0.0 0.00 0.00 0.00 96 1019.8
20260903121016 70 60 0.0 0.0 0.00 0.00 0.00 96 1019.7
20260903120516 69 60 0.0 1.0 0.00 0.00 0.00 96 1019.7
20260903120043 69 60 0.0 1.0 0.00 0.00 0.00 95 1019.6
20260903115516 69 60 0.0 0.0 0.00 0.00 0.00 95 1019.5
20260903115011 69 236 0.0 0.0 0.00 0.00 0.00 95 1019.4
20260903114528 69 273 0.0 0.0 0.00 0.00 0.00 95 1019.3
20260903114013 69 273 0.0 0.0 0.00 0.00 0.00 95 1019.4
20260903113516 69 273 0.0 0.0 0.00 0.00 0.00 94 1019.3
20260903113031 69 273 0.0 0.0 0.00 0.00 0.00 94 1019.3
20260903112518 69 273 0.0 0.0 0.00 0.00 0.00 94 1019.3
20260903112003 69 273 0.0 0.0 0.00 0.00 0.00 94 1019.2
20260903111506 69 273 0.0 0.0 0.00 0.00 0.00 94 1019.2
20260903111006 69 273 0.0 0.0 0.00 0.00 0.00 94 1019.2
20260903110503 69 273 0.0 0.0 0.00 0.00 0.00 94 1019.0
20260903110007 69 273 0.0 0.0 0.00 0.00 0.00 94 1018.9
20260903105502 70 273 0.0 0.0 0.00 0.00 0.00 94 1018.9
20260903105001 69 273 0.0 0.0 0.00 0.00 0.00 94 1018.8
20260903104504 69 273 0.0 0.0 0.00 0.00 0.00 94 1018.8
20260903104004 70 273 0.0 0.0 0.00 0.00 0.00 94 1018.7
20260903103502 70 273 0.0 0.0 0.00 0.00 0.00 94 1018.7
20260903103008 69 273 0.0 0.0 0.00 0.00 0.00 94 1018.7
20260903102503 69 273 0.0 0.0 0.00 0.00 0.00 94 1018.7
20260903102005 69 273 0.0 0.0 0.00 0.00 0.00 93 1018.7
20260903101510 70 273 0.0 0.0 0.00 0.00 0.00 93 1018.7
20260903101002 70 273 0.0 0.0 0.00 0.00 0.00 94 1018.6
20260903100506 70 273 0.0 0.0 0.00 0.00 0.00 94 1018.7
20260903100008 70 273 0.0 0.0 0.00 0.00 0.00 93 1018.7
20260903095503 70 273 0.0 0.0 0.00 0.00 0.00 93 1018.6
20260903095004 70 273 0.0 0.0 0.00 0.00 0.00 93 1018.6
20260903094511 70 273 0.0 0.0 0.00 0.00 0.00 93 1018.6
20260903094005 70 273 0.0 0.0 0.00 0.00 0.00 93 1018.6
20260903093504 70 273 0.0 0.0 0.00 0.00 0.00 93 1018.7
20260903093007 70 273 0.0 0.0 0.00 0.00 0.00 93 1018.7
20260903092506 70 273 0.0 0.0 0.00 0.00 0.00 93 1018.7
20260903092003 70 273 0.0 0.0 0.00 0.00 0.00 93 1018.7
20260903091514 70 273 0.0 0.0 0.00 0.00 0.00 93 1018.7
20260903091003 70 273 0.0 0.0 0.00 0.00 0.00 92 1018.8
20260903090503 70 273 0.0 0.0 0.00 0.00 0.00 92 1018.8
20260903090013 70 273 0.0 0.0 0.00 0.00 0.00 92 1018.8
20260903085506 70 273 0.0 0.0 0.00 0.00 0.00 92 1018.7
20260903085006 70 273 0.0 0.0 0.00 0.00 0.00 92 1018.8
20260903084514 70 273 0.0 0.0 0.00 0.00 0.00 92 1018.8
20260903084006 71 273 0.0 0.0 0.00 0.00 0.00 92 1018.8
20260903083507 71 273 0.0 0.0 0.00 0.00 0.00 92 1018.8
20260903083015 71 273 0.0 0.0 0.00 0.00 0.00 92 1018.7
20260903082507 71 273 0.0 0.0 0.00 0.00 0.00 91 1018.7
20260903082007 71 273 0.0 0.0 0.00 0.00 0.00 91 1018.7
20260903081507 71 273 0.0 0.0 0.00 0.00 0.00 91 1018.7
20260903081003 71 273 0.0 0.0 0.00 0.00 0.00 91 1018.7
20260903080504 71 273 0.0 0.0 0.00 0.00 0.00 91 1018.6
20260903080011 71 273 0.0 0.0 0.00 0.00 0.00 91 1018.6
20260903075507 71 273 0.0 0.0 0.00 0.00 0.00 91 1018.6
20260903075009 71 273 0.0 0.0 0.00 0.00 0.00 91 1018.6
20260903074516 71 273 0.0 0.0 0.00 0.00 0.00 91 1018.6
20260903074006 71 273 0.0 0.0 0.00 0.00 0.00 91 1018.5
20260903073508 71 273 0.0 0.0 0.00 0.00 0.00 91 1018.6
20260903073022 71 273 0.0 0.0 0.00 0.00 0.00 90 1018.6
20260903072508 71 273 0.0 0.0 0.00 0.00 0.00 90 1018.6
20260903072007 71 273 0.0 0.0 0.00 0.00 0.00 90 1018.5
20260903071522 72 273 0.0 0.0 0.00 0.00 0.00 90 1018.5
20260903071007 72 273 0.0 0.0 0.00 0.00 0.00 90 1018.5
20260903070508 72 273 0.0 0.0 0.00 0.00 0.00 91 1018.5
20260903070020 72 273 0.0 0.0 0.00 0.00 0.00 90 1018.5
20260903065504 72 273 0.0 0.0 0.00 0.00 0.00 90 1018.5
20260903065004 72 273 0.0 0.0 0.00 0.00 0.00 90 1018.5
20260903064516 72 273 0.0 0.0 0.00 0.00 0.00 90 1018.6
20260903064008 72 273 0.0 0.0 0.00 0.00 0.00 90 1018.6
20260903063508 72 273 0.0 0.0 0.00 0.00 0.00 90 1018.6
20260903063020 72 273 0.0 0.0 0.00 0.00 0.00 90 1018.6
20260903062511 72 273 0.0 0.0 0.00 0.00 0.00 90 1018.6
20260903062010 73 273 0.0 0.0 0.00 0.00 0.00 90 1018.6
20260903061536 73 273 0.0 0.0 0.00 0.00 0.00 90 1018.7
20260903061010 73 273 0.0 0.0 0.00 0.00 0.00 89 1018.7
20260903060510 73 273 0.0 0.0 0.00 0.00 0.00 89 1018.6
20260903060024 73 273 0.0 0.0 0.00 0.00 0.00 89 1018.6
20260903055510 73 273 0.0 0.0 0.00 0.00 0.00 89 1018.6
20260903055009 73 273 0.0 0.0 0.00 0.00 0.00 89 1018.7
20260903054524 73 273 0.0 0.0 0.00 0.00 0.00 89 1018.7
20260903054012 73 273 0.0 0.0 0.00 0.00 0.00 89 1018.7
20260903053507 73 273 0.0 0.0 0.00 0.00 0.00 89 1018.7
20260903053017 73 273 0.0 0.0 0.00 0.00 0.00 89 1018.7
20260903052508 73 273 0.0 0.0 0.00 0.00 0.00 89 1018.7
20260903052011 74 273 0.0 0.0 0.00 0.00 0.00 88 1018.7
20260903051523 74 273 0.0 0.0 0.00 0.00 0.00 88 1018.8
20260903051009 74 273 0.0 0.0 0.00 0.00 0.00 88 1018.7
20260903050513 74 273 0.0 0.0 0.00 0.00 0.00 88 1018.7
20260903050025 74 273 0.0 0.0 0.00 0.00 0.00 88 1018.7
20260903045512 74 273 0.0 0.0 0.00 0.00 0.00 88 1018.7
20260903045015 74 273 0.0 0.0 0.00 0.00 0.00 88 1018.6
20260903044527 74 273 0.0 0.0 0.00 0.00 0.00 88 1018.6
20260903044010 74 273 0.0 0.0 0.00 0.00 0.00 88 1018.7
20260903043510 74 273 0.0 0.0 0.00 0.00 0.00 88 1018.7
20260903043029 74 273 0.0 0.0 0.00 0.00 0.00 88 1018.7
20260903042514 75 273 0.0 0.0 0.00 0.00 0.00 88 1018.7
20260903042013 75 273 0.0 0.0 0.00 0.00 0.00 88 1018.7
20260903041530 75 273 0.0 0.0 0.00 0.00 0.00 88 1018.7
20260903041005 75 273 0.0 0.0 0.00 0.00 0.00 88 1018.7
20260903040510 75 273 0.0 0.0 0.00 0.00 0.00 87 1018.7